TimeWET,TemperatureF,Dew PointF,Humidity,Sea Level PressureIn,VisibilityMPH,Wind Direction,Wind SpeedMPH,Gust SpeedMPH,PrecipitationIn,Events,Conditions,WindDirDegrees,DateUTC
12:00 AM,67,66,94,30.06,4,Calm,Calm,,,,Partly Cloudy,,2012-10-12 00:00:00
12:00 AM,68.0,66.2,94,30.06,3.7,Calm,Calm,-,N/A,,Scattered Clouds,0,2012-10-12 00:00:00
12:30 AM,66.2,64.4,94,30.06,3.7,Calm,Calm,-,N/A,,Scattered Clouds,0,2012-10-12 00:30:00
1:00 AM,66.2,66.2,100,30.06,3.7,Calm,Calm,-,N/A,,Scattered Clouds,0,2012-10-12 01:00:00
2:00 AM,62.6,60.8,94,30.04,3.7,Calm,Calm,-,N/A,,Scattered Clouds,0,2012-10-12 02:00:00
2:30 AM,62.6,60.8,94,30.04,3.7,Calm,Calm,-,N/A,,Scattered Clouds,0,2012-10-12 02:30:00
2:34 AM,62.6,60.8,94,30.04,0.7,Calm,Calm,-,N/A,,Scattered Clouds,0,2012-10-12 02:34:00
3:00 AM,62,61,95,30.05,1,Calm,Calm,,,,Mist,,2012-10-12 03:00:00
3:00 AM,62.6,60.8,94,30.04,0.7,Calm,Calm,-,N/A,,Scattered Clouds,0,2012-10-12 03:00:00
4:00 AM,62.6,60.8,94,30.04,0.9,Calm,Calm,-,N/A,,Scattered Clouds,0,2012-10-12 04:00:00
4:56 AM,60.8,59.0,94,30.04,3.1,Calm,Calm,-,N/A,,Scattered Clouds,0,2012-10-12 04:56:00
5:00 AM,60.8,59.0,94,30.04,3.7,Calm,Calm,-,N/A,,Scattered Clouds,0,2012-10-12 05:00:00
5:30 AM,60.8,59.0,94,30.04,3.7,Calm,Calm,-,N/A,,Scattered Clouds,0,2012-10-12 05:30:00
6:00 AM,61,59,92,30.05,4,Calm,Calm,,,,Partly Cloudy,,2012-10-12 06:00:00
6:00 AM,60.8,59.0,94,30.04,3.7,Calm,Calm,-,N/A,,Scattered Clouds,0,2012-10-12 06:00:00
6:30 AM,60.8,59.0,94,30.04,3.7,Calm,Calm,-,N/A,,Scattered Clouds,0,2012-10-12 06:30:00
7:00 AM,62.6,60.8,94,30.06,3.7,Calm,Calm,-,N/A,,Scattered Clouds,0,2012-10-12 07:00:00
8:00 AM,68.0,66.2,94,30.06,3.7,Calm,Calm,-,N/A,,Scattered Clouds,0,2012-10-12 08:00:00
8:30 AM,69.8,68.0,94,30.06,3.7,Calm,Calm,-,N/A,,Scattered Clouds,0,2012-10-12 08:30:00
9:00 AM,71,68,86,30.09,4,Calm,Calm,,,,Mostly Cloudy,,2012-10-12 09:00:00
9:00 AM,71.6,68.0,88,30.09,3.7,Calm,Calm,-,N/A,,Scattered Clouds,0,2012-10-12 09:00:00
9:30 AM,73.4,64.4,73,30.09,3.7,NNW,5.8,-,N/A,,Scattered Clouds,330,2012-10-12 09:30:00
10:00 AM,73.4,60.8,65,30.09,3.7,NNW,5.8,-,N/A,,Scattered Clouds,340,2012-10-12 10:00:00
10:30 AM,75.2,60.8,61,30.09,3.7,NW,6.9,-,N/A,,Scattered Clouds,310,2012-10-12 10:30:00
11:00 AM,75.2,60.8,61,30.09,5.0,NNW,8.1,-,N/A,,Scattered Clouds,330,2012-10-12 11:00:00
11:30 AM,75.2,60.8,61,30.06,5.0,NW,8.1,-,N/A,,Scattered Clouds,320,2012-10-12 11:30:00
12:00 PM,76,61,51,30.08,5,NNW,10.4,,,,Mostly Cloudy,330,2012-10-12 12:00:00
12:00 PM,75.2,60.8,61,30.06,5.0,NNW,10.4,-,N/A,,Scattered Clouds,330,2012-10-12 12:00:00
12:30 PM,75.2,62.6,65,30.06,5.0,North,11.5,-,N/A,,Scattered Clouds,350,2012-10-12 12:30:00
1:00 PM,75.2,62.6,65,30.06,5.0,North,11.5,-,N/A,,Scattered Clouds,350,2012-10-12 13:00:00
1:30 PM,75.2,60.8,61,30.06,5.0,North,10.4,-,N/A,,Scattered Clouds,360,2012-10-12 13:30:00
2:00 PM,75.2,60.8,61,30.04,5.0,North,12.7,-,N/A,,Scattered Clouds,350,2012-10-12 14:00:00
2:30 PM,75.2,60.8,61,30.04,5.0,North,11.5,-,N/A,,Scattered Clouds,350,2012-10-12 14:30:00
3:00 PM,74,61,55,30.06,5,North,11.5,,,,Partly Cloudy,350,2012-10-12 15:00:00
3:00 PM,73.4,60.8,65,30.06,5.0,North,11.5,-,N/A,,Scattered Clouds,350,2012-10-12 15:00:00
3:30 PM,73.4,60.8,65,30.04,5.0,North,11.5,-,N/A,,Scattered Clouds,360,2012-10-12 15:30:00
4:00 PM,73.4,60.8,65,30.04,5.0,North,12.7,-,N/A,,Scattered Clouds,360,2012-10-12 16:00:00
5:00 PM,71.6,60.8,69,30.04,5.0,North,11.5,-,N/A,,Scattered Clouds,350,2012-10-12 17:00:00
5:30 PM,69.8,60.8,73,30.06,5.0,North,11.5,-,N/A,,Scattered Clouds,10,2012-10-12 17:30:00
6:00 PM,69,60,67,30.07,5,North,8.1,,,,Partly Cloudy,10,2012-10-12 18:00:00
6:00 PM,69.8,60.8,73,30.06,5.0,North,8.1,-,N/A,,Scattered Clouds,10,2012-10-12 18:00:00
6:30 PM,68.0,60.8,78,30.06,5.0,North,5.8,-,N/A,,Scattered Clouds,360,2012-10-12 18:30:00
7:00 PM,66.2,59.0,78,30.06,5.0,Calm,Calm,-,N/A,,Scattered Clouds,0,2012-10-12 19:00:00
8:00 PM,62.6,59.0,88,30.09,5.0,ESE,1.2,-,N/A,,Scattered Clouds,110,2012-10-12 20:00:00
8:30 PM,60.8,57.2,88,30.09,5.0,Calm,Calm,-,N/A,,Scattered Clouds,0,2012-10-12 20:30:00
9:00 PM,60,57,86,30.10,5,Calm,Calm,,,,Partly Cloudy,,2012-10-12 21:00:00
9:00 PM,59.0,57.2,94,30.09,5.0,Calm,Calm,-,N/A,,Scattered Clouds,0,2012-10-12 21:00:00
9:30 PM,59.0,57.2,94,30.09,5.0,Calm,Calm,-,N/A,,Scattered Clouds,0,2012-10-12 21:30:00
10:00 PM,60.8,59.0,94,30.09,5.0,Calm,Calm,-,N/A,,Scattered Clouds,0,2012-10-12 22:00:00
10:30 PM,60.8,59.0,94,30.09,5.0,Calm,Calm,-,N/A,,Scattered Clouds,0,2012-10-12 22:30:00
11:00 PM,60.8,57.2,88,30.09,5.0,SE,3.5,-,N/A,,Scattered Clouds,140,2012-10-12 23:00:00
11:30 PM,60.8,59.0,94,30.09,5.0,Calm,Calm,-,N/A,,Mostly Cloudy,0,2012-10-12 23:30:00